Time,TemperatureF,DewpointF,PressureIn,WindDirection,WindDirectionDegrees,WindSpeedMPH,WindSpeedGustMPH,Humidity,HourlyPrecipIn,Conditions,Clouds,dailyrainin,SoftwareType,DateUTC
2017-05-26 00:13:00,60.7,58.0,29.77,South,177,0.0,2.0,92,0.00,,,0.00,weatherlink.com 1.10,2017-05-26 04:13:00,
2017-05-26 00:28:00,60.2,58.0,29.77,WNW,291,0.0,2.0,92,0.00,,,0.00,weatherlink.com 1.10,2017-05-26 04:28:00,
2017-05-26 00:43:00,59.4,57.0,29.78,WNW,287,0.0,1.0,93,0.00,,,0.00,weatherlink.com 1.10,2017-05-26 04:43:00,
2017-05-26 00:58:00,59.0,57.0,29.78,West,266,3.0,4.0,94,0.00,,,0.00,weatherlink.com 1.10,2017-05-26 04:58:00,
2017-05-26 01:13:00,58.6,57.0,29.79,NW,319,0.0,2.0,94,0.00,,,0.00,weatherlink.com 1.10,2017-05-26 05:13:00,
2017-05-26 01:28:00,58.2,57.0,29.79,West,270,0.0,0.0,94,0.00,,,0.00,weatherlink.com 1.10,2017-05-26 05:28:00,
2017-05-26 01:43:00,57.8,56.0,29.79,West,267,0.0,1.0,94,0.00,,,0.00,weatherlink.com 1.10,2017-05-26 05:43:00,
2017-05-26 01:58:00,57.4,56.0,29.80,West,267,0.0,1.0,94,0.00,,,0.00,weatherlink.com 1.10,2017-05-26 05:58:00,
2017-05-26 02:13:00,57.2,56.0,29.80,WNW,291,0.0,1.0,94,0.00,,,0.00,weatherlink.com 1.10,2017-05-26 06:13:00,
2017-05-26 02:28:00,57.0,55.0,29.80,WNW,290,0.0,0.0,93,0.00,,,0.00,weatherlink.com 1.10,2017-05-26 06:28:00,
2017-05-26 02:43:00,56.6,55.0,29.80,WNW,290,0.0,0.0,94,0.00,,,0.00,weatherlink.com 1.10,2017-05-26 06:43:00,
2017-05-26 02:58:00,56.3,55.0,29.80,SSW,210,0.0,2.0,94,0.00,,,0.00,weatherlink.com 1.10,2017-05-26 06:58:00,
2017-05-26 03:13:00,56.1,54.0,29.81,SW,225,0.0,1.0,94,0.00,,,0.00,weatherlink.com 1.10,2017-05-26 07:13:00,
2017-05-26 03:28:00,55.8,54.0,29.81,West,262,0.0,1.0,94,0.00,,,0.00,weatherlink.com 1.10,2017-05-26 07:28:00,
2017-05-26 03:43:00,55.6,54.0,29.81,SSW,205,0.0,2.0,94,0.00,,,0.00,weatherlink.com 1.10,2017-05-26 07:43:00,
2017-05-26 03:58:00,55.3,54.0,29.81,SSE,162,0.0,0.0,95,0.00,,,0.00,weatherlink.com 1.10,2017-05-26 07:58:00,
2017-05-26 04:28:00,54.9,54.0,29.82,WSW,249,0.0,1.0,95,0.00,,,0.00,weatherlink.com 1.10,2017-05-26 08:28:00,
2017-05-26 04:43:00,54.7,53.0,29.82,WNW,283,0.0,0.0,95,0.00,,,0.00,weatherlink.com 1.10,2017-05-26 08:43:00,
2017-05-26 04:58:00,54.5,53.0,29.83,NW,314,0.0,0.0,95,0.00,,,0.00,weatherlink.com 1.10,2017-05-26 08:58:00,
2017-05-26 05:13:00,54.5,53.0,29.83,NW,325,0.0,0.0,96,0.00,,,0.00,weatherlink.com 1.10,2017-05-26 09:13:00,
2017-05-26 05:28:00,54.3,53.0,29.84,NW,323,0.0,0.0,95,0.00,,,0.00,weatherlink.com 1.10,2017-05-26 09:28:00,
2017-05-26 05:43:00,54.2,53.0,29.84,SW,235,0.0,1.0,96,0.00,,,0.00,weatherlink.com 1.10,2017-05-26 09:43:00,
2017-05-26 05:58:00,54.0,53.0,29.85,WNW,287,0.0,0.0,96,0.00,,,0.00,weatherlink.com 1.10,2017-05-26 09:58:00,
2017-05-26 06:13:00,54.0,53.0,29.86,WNW,284,0.0,1.0,96,0.00,,,0.00,weatherlink.com 1.10,2017-05-26 10:13:00,
2017-05-26 06:28:00,54.0,53.0,29.86,West,280,0.0,1.0,96,0.00,,,0.00,weatherlink.com 1.10,2017-05-26 10:28:00,
2017-05-26 06:44:00,53.8,53.0,29.86,SW,221,1.0,1.0,96,0.00,,,0.00,weatherlink.com 1.10,2017-05-26 10:44:00,
2017-05-26 06:58:00,53.9,53.0,29.88,WSW,249,0.0,0.0,96,0.00,,,0.00,weatherlink.com 1.10,2017-05-26 10:58:00,
2017-05-26 07:13:00,54.2,53.0,29.89,West,274,0.0,0.0,96,0.00,,,0.00,weatherlink.com 1.10,2017-05-26 11:13:00,
2017-05-26 07:28:00,54.3,53.0,29.89,SW,218,0.0,1.0,96,0.00,,,0.00,weatherlink.com 1.10,2017-05-26 11:28:00,
2017-05-26 07:44:00,54.6,54.0,29.89,SW,218,0.0,1.0,96,0.00,,,0.00,weatherlink.com 1.10,2017-05-26 11:44:00,
2017-05-26 07:59:00,55.5,54.0,29.90,SW,225,0.0,1.0,96,0.00,,,0.00,weatherlink.com 1.10,2017-05-26 11:59:00,
2017-05-26 08:14:00,57.3,56.0,29.90,SW,235,0.0,2.0,96,0.00,,,0.00,weatherlink.com 1.10,2017-05-26 12:14:00,
2017-05-26 08:29:00,58.0,57.0,29.90,WSW,238,0.0,2.0,95,0.00,,,0.00,weatherlink.com 1.10,2017-05-26 12:29:00,
2017-05-26 08:44:00,59.3,58.0,29.91,SW,224,3.0,3.0,94,0.00,,,0.00,weatherlink.com 1.10,2017-05-26 12:44:00,
2017-05-26 08:59:00,60.7,59.0,29.91,SW,226,0.0,1.0,93,0.00,,,0.00,weatherlink.com 1.10,2017-05-26 12:59:00,
2017-05-26 09:14:00,62.3,59.0,29.91,SSW,193,0.0,4.0,90,0.00,,,0.00,weatherlink.com 1.10,2017-05-26 13:14:00,
2017-05-26 09:29:00,63.3,60.0,29.92,SSW,211,0.0,3.0,88,0.00,,,0.00,weatherlink.com 1.10,2017-05-26 13:29:00,
2017-05-26 09:44:00,64.7,61.0,29.91,WSW,253,0.0,3.0,88,0.00,,,0.00,weatherlink.com 1.10,2017-05-26 13:44:00,
2017-05-26 09:59:00,66.0,61.0,29.92,SSW,212,1.0,3.0,85,0.00,,,0.00,weatherlink.com 1.10,2017-05-26 13:59:00,
2017-05-26 10:14:00,67.6,62.0,29.92,SSW,207,2.0,7.0,83,0.00,,,0.00,weatherlink.com 1.10,2017-05-26 14:14:00,
2017-05-26 10:29:00,68.9,63.0,29.91,SW,224,0.0,3.0,81,0.00,,,0.00,weatherlink.com 1.10,2017-05-26 14:29:00,
2017-05-26 10:44:00,69.8,63.0,29.91,SSW,211,6.0,6.0,78,0.00,,,0.00,weatherlink.com 1.10,2017-05-26 14:44:00,
2017-05-26 10:59:00,70.7,63.0,29.91,SSE,160,0.0,5.0,76,0.00,,,0.00,weatherlink.com 1.10,2017-05-26 14:59:00,
2017-05-26 11:14:00,72.4,64.0,29.93,WSW,256,0.0,3.0,75,0.00,,,0.00,weatherlink.com 1.10,2017-05-26 15:14:00,
2017-05-26 11:29:00,73.8,64.0,29.91,SSW,211,2.0,3.0,71,0.00,,,0.00,weatherlink.com 1.10,2017-05-26 15:29:00,
2017-05-26 11:44:00,73.3,63.0,29.92,West,266,1.0,6.0,69,0.00,,,0.00,weatherlink.com 1.10,2017-05-26 15:44:00,
2017-05-26 12:00:00,73.8,62.0,29.92,NE,41,0.0,5.0,67,0.00,,,0.00,weatherlink.com 1.10,2017-05-26 16:00:00,
2017-05-26 12:15:00,74.0,61.0,29.93,SSE,162,2.0,12.0,63,0.00,,,0.00,weatherlink.com 1.10,2017-05-26 16:15:00,
2017-05-26 12:29:00,74.9,62.0,29.92,West,259,3.0,7.0,64,0.00,,,0.00,weatherlink.com 1.10,2017-05-26 16:29:00,
2017-05-26 12:44:00,75.3,62.0,29.91,SSW,193,3.0,10.0,63,0.00,,,0.00,weatherlink.com 1.10,2017-05-26 16:44:00,
2017-05-26 12:59:00,75.1,62.0,29.91,SSW,203,2.0,9.0,63,0.00,,,0.00,weatherlink.com 1.10,2017-05-26 16:59:00,
2017-05-26 13:15:00,76.3,63.0,29.90,SE,130,1.0,8.0,64,0.00,,,0.00,weatherlink.com 1.10,2017-05-26 17:15:00,
2017-05-26 13:30:00,76.2,63.0,29.90,SSW,212,3.0,9.0,63,0.00,,,0.00,weatherlink.com 1.10,2017-05-26 17:30:00,
2017-05-26 13:45:00,76.4,62.0,29.89,South,177,3.0,4.0,62,0.00,,,0.00,weatherlink.com 1.10,2017-05-26 17:45:00,
2017-05-26 14:00:00,77.4,62.0,29.89,WSW,239,2.0,6.0,60,0.00,,,0.00,weatherlink.com 1.10,2017-05-26 18:00:00,
2017-05-26 14:15:00,77.5,62.0,29.88,SW,233,0.0,5.0,60,0.00,,,0.00,weatherlink.com 1.10,2017-05-26 18:15:00,
2017-05-26 14:30:00,78.4,65.0,29.87,West,277,1.0,5.0,64,0.00,,,0.00,weatherlink.com 1.10,2017-05-26 18:30:00,
2017-05-26 14:45:00,78.8,62.0,29.86,NE,49,1.0,9.0,57,0.00,,,0.00,weatherlink.com 1.10,2017-05-26 18:45:00,
2017-05-26 15:00:00,78.1,62.0,29.86,WSW,253,2.0,6.0,57,0.00,,,0.00,weatherlink.com 1.10,2017-05-26 19:00:00,
2017-05-26 15:15:00,78.9,63.0,29.86,South,174,0.0,4.0,58,0.00,,,0.00,weatherlink.com 1.10,2017-05-26 19:15:00,
2017-05-26 15:30:00,79.0,63.0,29.86,WSW,240,0.0,8.0,58,0.00,,,0.00,weatherlink.com 1.10,2017-05-26 19:30:00,
2017-05-26 15:45:00,79.4,62.0,29.86,SE,129,0.0,3.0,55,0.00,,,0.00,weatherlink.com 1.10,2017-05-26 19:45:00,
2017-05-26 16:00:00,80.5,63.0,29.85,SW,224,0.0,2.0,56,0.00,,,0.00,weatherlink.com 1.10,2017-05-26 20:00:00,
2017-05-26 16:15:00,80.1,62.0,29.86,SSW,208,0.0,4.0,55,0.00,,,0.00,weatherlink.com 1.10,2017-05-26 20:15:00,
2017-05-26 16:30:00,79.7,64.0,29.85,SE,134,0.0,8.0,58,0.00,,,0.00,weatherlink.com 1.10,2017-05-26 20:30:00,
2017-05-26 16:45:00,79.7,62.0,29.85,SW,221,1.0,5.0,54,0.00,,,0.00,weatherlink.com 1.10,2017-05-26 20:45:00,
2017-05-26 17:00:00,79.5,62.0,29.84,SSW,200,1.0,12.0,55,0.00,,,0.00,weatherlink.com 1.10,2017-05-26 21:00:00,
2017-05-26 17:15:00,79.3,63.0,29.85,SSW,197,1.0,7.0,57,0.00,,,0.00,weatherlink.com 1.10,2017-05-26 21:15:00,
2017-05-26 17:30:00,79.1,63.0,29.85,SE,141,0.0,1.0,58,0.00,,,0.00,weatherlink.com 1.10,2017-05-26 21:30:00,
2017-05-26 17:45:00,78.8,63.0,29.86,WNW,284,0.0,6.0,58,0.00,,,0.00,weatherlink.com 1.10,2017-05-26 21:45:00,
2017-05-26 18:00:00,79.5,64.0,29.85,South,183,0.0,1.0,60,0.00,,,0.00,weatherlink.com 1.10,2017-05-26 22:00:00,
2017-05-26 18:15:00,78.7,64.0,29.84,SW,232,0.0,7.0,60,0.00,,,0.00,weatherlink.com 1.10,2017-05-26 22:15:00,
2017-05-26 18:30:00,77.6,63.0,29.84,SSW,193,0.0,4.0,60,0.00,,,0.00,weatherlink.com 1.10,2017-05-26 22:30:00,